Voltar ao catálogo

STARLINK-30928

AtivoComunicaçõesVLEO
NORAD 58452·PAYLOAD·🇺🇸 United States

Lançado Nov 28, 2023 de Cape Canaveral Space Force Station

Loading…

Próximas Passagens (próximas 24 horas)

TLE

AtualizadoSource: CelesTrak SupGP

Época: Sep 15, 2026, 03:12 UTC

1 58452C 23183R   26258.13381944 -.00026901  00000+0 -97416-3 0  2584
2 58452  43.0028  51.6512 0001792 266.5447 261.7199 15.27597751    11

Acompanhe STARLINK-30928 em tempo real com AllMySat

Download on the App Store